Location: Lower Kingswood
(51.2667°N, 0.2167°W)
Time: 21:20:16
(UTC+00:00)

FENGYUN 3A - Pass Details

Date: 26 September 2023
Orbit: 823 x 834 km, 98.6° (Epoch: 11 December)

Event Time Altitude Azimuth Distance (km) Brightness Sun altitude
Rises 03:23:51 0° 12° (NNE) 3,374 7.4 -23.1°
Reaches altitude 10° 03:26:14 10° 8° (N) 2,436 6.6 -22.8°
Maximum altitude 03:31:30 56° 292° (WNW) 974 3.7 -22.1°
Enters shadow 03:32:31 48° 251° (WSW) 1,066 3.8 -21.9°
